Voltar ao catálogo

CZ-4C R/B

AtivoLEO
NORAD 39242·ROCKET BODY·🇨🇳 China

Lançado Sep 1, 2013 de Jiuquan Satellite Launch Center

Loading…

Próximas Passagens (próximas 24 horas)

TLE

AtualizadoSource: Space-Track

Época: Sep 14, 2026, 10:14 UTC

1 39242U 13046D   26257.42648209 -.00000039  00000-0  26629-4 0  9993
2 39242  63.4171  42.3360 0609346 353.7246   5.6395 13.71323735652174

Acompanhe CZ-4C R/B em tempo real com AllMySat

Download on the App Store